Location: Gro�wechsungen
(51.4926°N, 10.6901°E)
Time: 01:26:19
(UTC+00:00)

Okean-O - Pass Details

Date: 18 September 2020
Orbit: 639 x 641 km, 98.2° (Epoch: 23 October)

Event Time Altitude Azimuth Distance (km) Brightness Sun altitude
Rises 18:07:03 0° 183° (S) 2,935 5.9 -7.5°
Reaches altitude 10° 18:09:20 10° 190° (S) 2,031 5.2 -7.8°
Maximum altitude 18:13:32 42° 261° (W) 927 4.1 -8.5°
Drops below altitude 10° 18:17:46 10° 333° (NNW) 2,047 5.8 -9.1°
Sets 18:20:06 0° 341° (NNW) 2,961 6.6 -9.5°
